STARLINK-11265, 60909

Orbit data source: Space-Track

STARLINK-11265, 60909 is a payload satellite owned by SpaceX/Seattle (US) in LEO that was launched on Sat, 31 Aug 2024 UTC via an FALCON 9 launch vehicle from the Air Force Eastern Test Range (AFETR). Payload-class satellites include a variety of spacecraft equipped with specific instruments for various scientific and technological missions. These include communications satellites like Starlink; space stations such as the ISS; scientific satellites like the Hubble; Earth observation satellites from companies like Planet Labs, Umbra, and HawkEye 360; GPS; miniature CubeSats for education and research; and military/defense satellites.

Loading next visibility...
Identifier
60909, 2024-154G
Orbit
LEO
Country
Flag of USUS
Related business
Manufacturer
SpaceX/Seattle
Mission
Operational Commercial Communications
Bus & Motor
STARLINK V2MD, Unknown motor
Mass
960 kg wet, ~910 kg dry
Launch date (UTC)
2024-08-31 (2 years ago)
Launch vehicle
FALCON 9
Launch site
Air Force Eastern Test Range (AFETR)
Object type
Payload
Rocket body
Debris
Shape & HBR
Box + 2 Pan, 18.1 m
Radar Cross Section
36.964 m², Large (>1 m²)

Expand to show TLE details & history
Last TLE update: 2 days ago

TLE from 2 days ago
0 STARLINK-11265
1 60909U 24154G   26174.72606005  .00001895  00000-0  20501-4 0  9991
2 60909  53.1596 328.9080 0000712  89.5735 270.5365 15.69699120105161
Epoch: 2026-06-23T17:25Z
TLE epoch observation values (Epoch: 2026-06-23T17:25:31.588Z)
Latitude
0.00003°
Longitude
155.63291°
Altitude
360.668 km
Speed
7.694 km/s
True Right ascension
21h 55m 37s
True Declination
0° 00' 00"
Sunlit
Object was in full shadow at epoch
Visualization orbit readout
Latitude
Unknown
Longitude
Unknown
Altitude
Unknown
Speed
Unknown
Apparent Right ascension
Unknown
Apparent Declination
Unknown
Sunlit
N/A
Visualization observer readout
Local Sidereal Time
16:57:11
Azimuth
Unknown
Elevation
Unknown
Doppler factor
Unknown
Orbital elements
Apogee altitude
360.498 km
Perigee altitude
359.539 km
Semi-major axis
6,738.156 km
Eccentricity
0.00007
Inclination
53.1596°
RAAN
328.908°
Arg. of periapsis
89.5735°
True anomaly
270.52834°
Mean anomaly
270.5365°
Eccentric anomaly
270.53242°
Mean motion
3.92402 °/min
Orbital period
91.74 mins
BSTAR
0.000020501
Loading maneuver chart data...
Computing Atmospheric mass density...
Loading historical data...
Loading historical data...
Loading historical data...
Loading historical data...
Loading historical data...
Loading historical data...
Loading historical data...

Documentation

Showing up to 5 results
|